| time (UTC) | temp C | wind direction | speed KPH | gust KPH | rain 1hr cm | rain 24hr cm | rain mn cm | humidity % | barometer mb |
| 20260505002216 | 22 | 262 | 0.0 | 0.0 | 0.00 | 0.00 | 0.00 | 36 | 1014.0 |
| 20260505001213 | 22 | 262 | 0.0 | 0.0 | 0.00 | 0.00 | 0.00 | 35 | 1014.0 |
| 20260505000229 | 23 | 262 | 0.0 | 0.0 | 0.00 | 0.00 | 0.00 | 34 | 1013.9 |
| 20260504235220 | 23 | 262 | 0.0 | 0.0 | 0.00 | 0.00 | 0.00 | 32 | 1013.8 |
| 20260504234217 | 23 | 263 | 0.0 | 0.0 | 0.00 | 0.00 | 0.00 | 32 | 1013.6 |
| 20260504233214 | 23 | 258 | 0.0 | 0.0 | 0.00 | 0.00 | 0.00 | 32 | 1013.5 |
| 20260504232230 | 23 | 269 | 0.0 | 0.0 | 0.00 | 0.00 | 0.00 | 31 | 1013.3 |
| 20260504231218 | 24 | 265 | 0.0 | 3.2 | 0.00 | 0.00 | 0.00 | 31 | 1013.4 |
| 20260504230214 | 24 | 286 | 0.0 | 3.2 | 0.00 | 0.00 | 0.00 | 30 | 1013.3 |
| 20260504225224 | 24 | 311 | 1.6 | 6.4 | 0.00 | 0.00 | 0.00 | 30 | 1013.3 |
| 20260504224221 | 25 | 246 | 1.6 | 4.8 | 0.00 | 0.00 | 0.00 | 29 | 1013.2 |
| 20260504223237 | 25 | 284 | 1.6 | 4.8 | 0.00 | 0.00 | 0.00 | 28 | 1013.3 |
| 20260504222302 | 25 | 360 | 1.6 | 6.4 | 0.00 | 0.00 | 0.00 | 28 | 1013.2 |
| 20260504221228 | 25 | 297 | 1.6 | 6.4 | 0.00 | 0.00 | 0.00 | 27 | 1013.3 |
| 20260504220226 | 25 | 267 | 1.6 | 3.2 | 0.00 | 0.00 | 0.00 | 26 | 1013.4 |
| 20260504215232 | 26 | 242 | 3.2 | 4.8 | 0.00 | 0.00 | 0.00 | 26 | 1013.4 |
| 20260504214228 | 26 | 279 | 1.6 | 4.8 | 0.00 | 0.00 | 0.00 | 27 | 1013.4 |
| 20260504213225 | 26 | 219 | 1.6 | 8.0 | 0.00 | 0.00 | 0.00 | 28 | 1013.4 |
| 20260504212241 | 26 | 304 | 1.6 | 6.4 | 0.00 | 0.00 | 0.00 | 29 | 1013.4 |
| 20260504211236 | 26 | 267 | 1.6 | 4.8 | 0.00 | 0.00 | 0.00 | 29 | 1013.5 |
| 20260504210233 | 26 | 308 | 3.2 | 11.3 | 0.00 | 0.00 | 0.00 | 28 | 1013.5 |
| 20260504205213 | 26 | 355 | 1.6 | 4.8 | 0.00 | 0.00 | 0.00 | 29 | 1013.5 |
| 20260504204238 | 27 | 5 | 1.6 | 3.2 | 0.00 | 0.00 | 0.00 | 30 | 1013.8 |
| 20260504203233 | 26 | 315 | 1.6 | 6.4 | 0.00 | 0.00 | 0.00 | 29 | 1014.0 |
| 20260504202221 | 27 | 236 | 3.2 | 6.4 | 0.00 | 0.00 | 0.00 | 28 | 1014.1 |
| 20260504201217 | 26 | 116 | 1.6 | 6.4 | 0.00 | 0.00 | 0.00 | 29 | 1014.1 |
| 20260504200214 | 26 | 302 | 1.6 | 4.8 | 0.00 | 0.00 | 0.00 | 27 | 1014.3 |
| 20260504195219 | 26 | 306 | 1.6 | 9.7 | 0.00 | 0.00 | 0.00 | 29 | 1014.3 |
| 20260504194217 | 26 | 346 | 1.6 | 8.0 | 0.00 | 0.00 | 0.00 | 26 | 1014.4 |
| 20260504193232 | 26 | 313 | 3.2 | 4.8 | 0.00 | 0.00 | 0.00 | 27 | 1014.4 |
| 20260504192227 | 26 | 284 | 1.6 | 9.7 | 0.00 | 0.00 | 0.00 | 28 | 1014.6 |
| 20260504191224 | 25 | 204 | 1.6 | 6.4 | 0.00 | 0.00 | 0.00 | 29 | 1014.7 |
| 20260504190241 | 26 | 260 | 1.6 | 6.4 | 0.00 | 0.00 | 0.00 | 27 | 1014.9 |
| 20260504185227 | 25 | 38 | 1.6 | 6.4 | 0.00 | 0.00 | 0.00 | 27 | 1015.1 |
| 20260504184223 | 26 | 87 | 1.6 | 6.4 | 0.00 | 0.00 | 0.00 | 26 | 1015.2 |
| 20260504183236 | 25 | 355 | 3.2 | 4.8 | 0.00 | 0.00 | 0.00 | 30 | 1015.2 |
| 20260504182224 | 25 | 138 | 1.6 | 8.0 | 0.00 | 0.00 | 0.00 | 31 | 1015.4 |
| 20260504181240 | 26 | 302 | 1.6 | 3.2 | 0.00 | 0.00 | 0.00 | 32 | 1015.4 |
| 20260504180246 | 25 | 295 | 1.6 | 4.8 | 0.00 | 0.00 | 0.00 | 30 | 1015.5 |
| 20260504175233 | 25 | 300 | 1.6 | 6.4 | 0.00 | 0.00 | 0.00 | 29 | 1015.4 |
| 20260504174229 | 23 | 34 | 1.6 | 6.4 | 0.00 | 0.00 | 0.00 | 30 | 1015.4 |
| 20260504173217 | 24 | 236 | 1.6 | 4.8 | 0.00 | 0.00 | 0.00 | 28 | 1015.8 |
| 20260504172214 | 24 | 313 | 3.2 | 8.0 | 0.00 | 0.00 | 0.00 | 29 | 1015.9 |
| 20260504171251 | 24 | 22 | 4.8 | 8.0 | 0.00 | 0.00 | 0.00 | 29 | 1015.9 |
| 20260504170226 | 23 | 46 | 1.6 | 8.0 | 0.00 | 0.00 | 0.00 | 35 | 1015.9 |
| 20260504160233 | 22 | 173 | 0.0 | 6.4 | 0.00 | 0.00 | 0.00 | 39 | 1017.3 |
| 20260504150236 | 21 | 56 | 0.0 | 3.2 | 0.00 | 0.00 | 0.00 | 46 | 1017.6 |
| 20260504141228 | 16 | 269 | 1.6 | 4.8 | 0.00 | 0.00 | 0.00 | 64 | 1017.5 |
| 20260504140245 | 15 | 355 | 1.6 | 3.2 | 0.00 | 0.00 | 0.00 | 68 | 1017.6 |
| 20260504130236 | 12 | 9 | 3.2 | 6.4 | 0.00 | 0.00 | 0.00 | 75 | 1017.6 |
| 20260504120240 | 8 | 94 | 0.0 | 0.0 | 0.00 | 0.00 | 0.00 | 88 | 1017.0 |
| 20260504110248 | 7 | 62 | 0.0 | 0.0 | 0.00 | 0.00 | 0.00 | 86 | 1017.1 |
| 20260504100228 | 7 | 101 | 0.0 | 0.0 | 0.00 | 0.00 | 0.00 | 84 | 1016.8 |
| 20260504081227 | 10 | 101 | 0.0 | 0.0 | 0.00 | 0.00 | 0.00 | 77 | 1016.4 |
| 20260504080243 | 10 | 101 | 0.0 | 0.0 | 0.00 | 0.00 | 0.00 | 77 | 1016.4 |
| 20260504070247 | 10 | 101 | 0.0 | 0.0 | 0.00 | 0.00 | 0.00 | 72 | 1016.5 |
| 20260504060214 | 11 | 101 | 0.0 | 0.0 | 0.00 | 0.00 | 0.00 | 68 | 1016.7 |
| 20260504050227 | 12 | 101 | 0.0 | 0.0 | 0.00 | 0.00 | 0.00 | 65 | 1016.7 |
| 20260504045237 | 12 | 101 | 0.0 | 1.6 | 0.00 | 0.00 | 0.00 | 64 | 1016.8 |
| 20260504044234 | 12 | 101 | 0.0 | 0.0 | 0.00 | 0.00 | 0.00 | 64 | 1016.8 |
| 20260504043221 | 12 | 101 | 0.0 | 0.0 | 0.00 | 0.00 | 0.00 | 64 | 1016.8 |
| 20260504042217 | 12 | 101 | 0.0 | 1.6 | 0.00 | 0.00 | 0.00 | 63 | 1016.9 |
| 20260504041213 | 12 | 94 | 0.0 | 0.0 | 0.00 | 0.00 | 0.00 | 63 | 1017.0 |
| 20260504040230 | 12 | 94 | 0.0 | 0.0 | 0.00 | 0.00 | 0.00 | 63 | 1017.1 |
| 20260504035219 | 12 | 94 | 0.0 | 0.0 | 0.00 | 0.00 | 0.00 | 62 | 1017.1 |
| 20260504034234 | 12 | 94 | 0.0 | 1.6 | 0.00 | 0.00 | 0.00 | 62 | 1017.0 |
| 20260504033222 | 12 | 101 | 0.0 | 0.0 | 0.00 | 0.00 | 0.00 | 62 | 1017.1 |
| 20260504032234 | 12 | 101 | 0.0 | 0.0 | 0.00 | 0.00 | 0.00 | 62 | 1017.1 |
| 20260504031238 | 12 | 101 | 0.0 | 0.0 | 0.00 | 0.00 | 0.00 | 60 | 1017.2 |
| 20260504030255 | 12 | 101 | 0.0 | 0.0 | 0.00 | 0.00 | 0.00 | 60 | 1017.1 |
| 20260504025224 | 12 | 101 | 0.0 | 0.0 | 0.00 | 0.00 | 0.00 | 59 | 1017.1 |
| 20260504024241 | 13 | 101 | 0.0 | 0.0 | 0.00 | 0.00 | 0.00 | 58 | 1017.1 |
| 20260504023228 | 13 | 101 | 0.0 | 0.0 | 0.00 | 0.00 | 0.00 | 57 | 1016.9 |
| 20260504022218 | 13 | 101 | 0.0 | 0.0 | 0.00 | 0.00 | 0.00 | 56 | 1016.8 |
| 20260504021215 | 13 | 101 | 0.0 | 0.0 | 0.00 | 0.00 | 0.00 | 55 | 1016.7 |
| 20260504020231 | 13 | 101 | 0.0 | 0.0 | 0.00 | 0.00 | 0.00 | 54 | 1016.6 |
| 20260504015221 | 14 | 101 | 0.0 | 0.0 | 0.00 | 0.00 | 0.00 | 53 | 1016.4 |
| 20260504014237 | 14 | 101 | 0.0 | 0.0 | 0.00 | 0.00 | 0.00 | 52 | 1016.3 |
| 20260504013233 | 15 | 101 | 0.0 | 0.0 | 0.00 | 0.00 | 0.00 | 51 | 1016.3 |
| 20260504012229 | 15 | 101 | 0.0 | 0.0 | 0.00 | 0.00 | 0.00 | 49 | 1016.1 |
| 20260504011217 | 15 | 101 | 0.0 | 0.0 | 0.00 | 0.00 | 0.00 | 48 | 1016.0 |
| 20260504010302 | 16 | 101 | 0.0 | 0.0 | 0.00 | 0.00 | 0.00 | 46 | 1016.0 |
| 20260504005230 | 16 | 101 | 0.0 | 0.0 | 0.00 | 0.00 | 0.00 | 46 | 1015.9 |
| 20260504004218 | 16 | 101 | 0.0 | 0.0 | 0.00 | 0.00 | 0.00 | 46 | 1015.8 |
| 20260504003214 | 16 | 101 | 0.0 | 0.0 | 0.00 | 0.00 | 0.00 | 45 | 1015.8 |